Tracking 22459 objects as of 3-Mar-2021
HD Live streaming from Space Station
objects crossing your sky now

TITAN 3C TRANSTAGE DEB

Track TITAN 3C TRANSTAGE DEB now!


NORAD ID: 26050
Int'l Code: 1965-108AJ
Perigee: 984.0 km
Apogee: 29,866.8 km
Inclination: 26.2 °
Period: 533.7 minutes
Semi major axis: 21796 km
RCS: 0.1424 m2 (medium)
Launch date: December 21, 1965
Source: United States (US)
Launch site: AIR FORCE EASTERN TEST RANGE (AFETR)

Note: This is SATELLITE DEBRIS
aabbcc
Your satellite tracking list
Your tracking list is empty




NASA's NSSDC Master Catalog

Two Line Element Set (TLE):
1 26050U 65108AJ  21060.55150722 -.00000078  00000-0 -72701-3 0  9996
2 26050  26.1670 257.5937 6625592  93.0578 338.6009  2.69790305214010
Source of the keplerian elements: AFSPC